Weather in Sheleksa

Russia / Arkhangel'skaya Oblast'     62°53′43″N   40°18′31″E
temp.,
°C
wind,
m/s
gust,
m/s
humid.,
%
clouds,
%
prec.,
mm/h
press.,
hPa
HPBL,
m
22 january, sat
sat2200:00−8sse139799 0.1 100981
03:00−10ese119897 0.1 101141
06:00−10e259787 0.2 1013113
09:00−12e249885 0.3 101570
12:00−12ese149748 0.0 1017113
15:00−14e119860 0.1 10199
18:00−19se1110060 0.0 10219
21:00−20s1110046 0.0 10239
23 january, sun
sun2300:00−21s1110052 0.0 102410
03:00−21sw1110043 0.0 102511
06:00−22sw1110050 0.0 102617
09:00−21sw2510068 0.0 102668
12:00−16sw269648 0.0 1027122
15:00−14ssw3895100 0.0 1027180
18:00−13sw31094100 0.0 1028227
21:00−13ssw3129425 0.0 1027256
24 january, mon
mon2400:00−12ssw41392100 0.0 1027326
03:00−11ssw4149496 0.0 1027418
06:00−8sw5149399 0.3 1025482
09:00−7sw51492100 0.3 1025484
12:00−6sw51492100 0.1 1024548
15:00−5ssw5169383 0.1 1023564
18:00−5ssw61793100 0.1 1021708
21:00−5ssw61891100 0.1 1019727
25 january, tue
tue2500:00−5ssw6188578 0.0 1017701
03:00−7ssw7188174 0.0 1015702
06:00−7ssw6178394 0.0 1013740
09:00−7ssw61589100 0.1 1012685
12:00−7ssw51393100 0.3 1012621
15:00−7ssw41095100 1.3 1012601
18:00−7ssw3995100 0.9 1013417
21:00−7ssw2696100 1.9 1014304
26 january, wed
wed2600:00−8ssw1398100 0.4 101585
03:00−13w119992 0.4 101710
06:00−14nw1110093 0.1 101810
09:00−16nw1110097 0.1 10199
12:00−12nnw019895 0.1 101943
15:00−13nw1110089 0.1 101910
18:00−15e0010099 0.1 102015
21:00−11ese119699 0.1 101932